Location: Unspecified
(0.0000°N, 0.0000°E)
Time: 00:30:31
(UTC+00:00)

COSMOS 2452 - Pass Details

Date: 17 May 2026
Orbit: 1481 x 1507 km, 82.5° (Epoch: 10 June)

Event Time Altitude Azimuth Distance (km) Brightness Sun altitude
Rises 01:41:35 0° 20° (NNE) 4,598 ? -57.8°
Reaches altitude 10° 01:45:01 10° 31° (NNE) 3,617 ? -57.1°
Enters shadow 01:47:44 19° 46° (NE) 2,968 ? -56.6°
